Theta_e
348 351 353 355 358 359 358 360 361 362 361 362 362 360 360 359 359 361 363 366 366 366 367 365 365 364 363 363 362 362 362 361 361 360 359 357 355 355 358 358 356 351 348 351 355 357 357 356 356 357 359 361 360 359 360 361 360 360 360 360 359 357 357
348 349 352 353 355 358 360 360 361 363 361 363 363 361 360 360 361 362 363 366 366 367 366 366 365 364 364 364 363 363 363 362 362 361 360 359 357 357 358 358 357 353 349 350 353 356 357 357 357 357 359 361 360 360 360 361 361 360 359 360 361 358 359
349 350 351 352 353 355 359 361 361 363 361 362 363 362 361 361 362 362 363 365 367 367 367 367 366 365 364 365 364 364 364 363 363 363 362 360 359 358 357 358 357 354 352 350 352 355 356 358 358 357 359 360 360 359 360 360 360 361 360 361 361 360 359
348 350 350 351 352 355 357 360 361 362 361 362 363 363 362 362 362 363 363 365 367 367 367 367 366 365 365 365 365 364 363 362 362 363 362 360 361 359 357 357 357 354 354 352 352 354 355 357 359 359 359 360 359 359 359 359 359 360 361 360 361 359 360
344 347 350 351 349 353 356 358 361 362 361 361 362 363 363 363 363 363 364 365 367 368 367 367 366 365 365 365 363 363 363 362 362 363 363 360 360 359 357 357 357 354 354 355 354 354 355 356 359 360 361 361 359 359 359 360 360 360 360 361 360 359 358
339 341 347 349 349 352 356 358 360 361 360 360 361 364 363 363 364 363 365 365 367 367 367 367 366 365 365 364 362 363 363 363 363 364 364 361 360 360 358 356 356 355 354 355 356 355 356 358 357 358 360 360 359 357 358 359 359 359 360 361 361 360 358
335 338 343 346 348 351 353 355 360 361 360 360 361 362 363 362 363 363 364 365 367 367 367 366 366 365 365 363 363 364 364 364 364 363 364 363 360 360 360 357 356 357 356 356 357 356 358 359 358 357 358 357 356 356 355 357 358 358 359 360 361 361 359
335 337 339 342 346 348 349 351 357 361 360 360 359 362 363 362 363 363 364 365 366 367 367 367 366 365 365 365 363 365 365 364 365 364 364 364 362 361 361 360 358 358 358 357 357 358 357 359 359 357 356 356 356 355 355 356 358 359 358 360 362 362 360
334 338 338 341 341 345 350 350 354 361 361 359 359 361 362 362 362 363 363 365 365 366 366 366 365 365 365 365 364 365 365 364 365 364 364 364 363 362 361 361 361 359 359 358 357 358 359 359 360 358 357 358 356 356 356 356 358 359 359 359 361 362 360
335 337 340 342 342 345 347 347 352 359 362 361 360 361 362 362 362 363 363 364 365 365 365 365 365 364 365 366 365 364 366 365 364 364 363 363 363 361 360 360 361 360 360 359 357 358 360 360 360 359 360 359 358 358 358 358 358 360 360 359 360 362 362
337 342 344 343 344 346 344 347 356 361 364 364 361 360 362 362 363 363 362 364 363 364 364 364 362 364 366 365 364 364 366 366 364 363 364 362 361 361 359 357 360 361 362 360 356 357 360 360 361 361 362 361 361 361 361 360 360 360 360 359 360 361 362
339 344 346 345 346 346 347 355 363 364 367 365 361 360 362 362 362 362 361 363 363 363 364 363 363 363 366 366 364 364 366 366 365 364 363 361 360 360 359 356 358 360 361 360 357 356 359 361 360 361 363 364 362 362 362 363 363 362 361 359 359 360 361
338 342 347 347 349 348 351 362 365 365 366 363 360 360 361 362 362 362 361 362 363 364 363 363 363 364 366 365 363 364 366 366 365 363 362 361 360 359 358 357 356 357 360 361 359 356 357 359 360 360 363 365 364 363 363 365 364 364 364 361 358 360 362
336 339 343 344 347 348 353 359 364 365 363 362 361 359 360 361 361 360 362 362 363 364 363 362 361 364 366 365 364 364 367 367 365 362 361 362 361 359 358 357 355 355 358 360 359 357 355 357 360 360 362 365 365 363 364 365 366 365 366 364 360 359 360
337 335 338 341 346 351 352 356 364 366 364 363 363 360 358 361 361 360 360 361 362 362 362 362 362 364 366 366 365 366 367 367 366 363 363 363 361 359 358 358 356 354 357 359 360 358 356 355 357 359 361 363 365 364 363 365 367 366 366 366 364 360 359
342 339 341 342 346 350 352 354 359 363 366 365 362 360 360 359 360 361 360 361 361 361 361 362 361 363 365 367 366 367 368 369 367 365 364 363 363 362 359 359 358 356 356 360 360 359 356 355 355 358 360 362 364 365 363 363 365 366 366 366 365 363 360
341 342 345 344 346 348 351 352 356 361 365 366 364 360 360 359 360 360 360 360 360 360 360 362 363 364 365 366 368 367 369 370 369 367 365 364 364 363 361 359 359 358 357 360 361 360 358 356 355 356 359 361 363 364 364 363 364 365 365 363 363 364 362
337 341 345 347 348 350 352 350 353 357 360 363 364 361 359 360 360 360 359 360 359 359 360 361 363 364 365 367 368 368 370 371 370 369 367 365 365 365 363 361 360 360 360 360 363 362 360 358 358 357 358 360 362 363 364 364 363 364 364 363 361 361 362
343 346 348 350 351 352 352 348 348 352 357 360 362 361 360 358 359 360 359 360 359 360 359 360 363 364 366 368 368 369 371 371 371 370 368 367 367 366 366 363 362 361 361 362 363 364 362 361 359 359 359 359 360 362 363 363 363 362 363 363 360 357 358
348 348 351 351 352 353 354 353 354 358 361 362 359 360 361 358 357 360 360 358 359 360 359 360 362 364 366 368 368 370 371 372 372 371 370 369 368 368 367 365 364 364 363 363 364 365 364 362 361 362 361 360 361 361 363 363 363 363 362 362 361 358 355
344 344 346 348 351 354 357 359 362 364 366 364 360 359 361 360 358 359 360 359 359 360 359 361 362 364 366 368 370 371 372 372 372 371 372 370 370 370 369 366 365 365 363 363 364 366 367 365 363 363 363 362 361 361 363 364 363 363 363 361 361 359 357
338 339 341 344 348 352 357 360 362 365 367 367 365 360 357 360 359 357 359 359 359 360 360 360 363 365 367 368 370 372 372 372 372 372 373 371 370 370 370 368 368 366 365 363 364 366 367 366 365 365 365 364 362 361 362 364 363 363 363 362 361 359 357
334 335 338 341 345 350 356 360 363 364 366 364 364 360 356 357 358 357 358 359 359 360 360 360 362 365 367 369 369 372 372 372 372 372 372 371 371 371 371 370 369 368 367 365 363 363 366 367 365 365 365 365 364 363 362 362 363 362 362 362 362 360 358
331 333 337 340 344 349 355 360 362 364 363 360 358 357 354 355 358 358 359 359 358 359 360 360 363 365 367 369 369 371 372 371 372 372 371 373 372 371 371 370 369 369 368 366 363 361 363 365 366 365 365 366 365 364 363 362 361 362 361 362 362 360 359
329 332 336 339 341 348 355 360 362 363 363 359 356 355 353 354 358 359 360 359 358 359 360 361 362 366 368 369 369 371 372 370 371 372 372 372 371 370 371 370 370 369 369 366 364 361 360 362 365 365 365 365 364 364 364 362 361 361 362 361 361 360 359
328 331 335 337 341 349 357 359 360 362 361 357 355 355 352 353 357 360 360 359 359 359 360 361 362 366 370 370 369 370 371 371 372 372 371 372 371 370 370 370 369 370 368 366 365 362 360 361 363 364 365 363 362 363 364 364 363 361 361 361 361 360 360
329 331 334 337 343 351 357 360 360 361 360 357 356 354 352 354 358 361 362 361 360 361 360 361 364 367 370 371 369 370 371 371 371 371 371 371 371 370 370 369 368 368 368 367 365 364 362 360 361 362 363 363 361 361 362 364 364 363 362 361 361 361 359
328 331 332 337 344 351 357 360 359 360 360 358 356 354 354 356 360 363 364 363 362 361 360 361 365 368 371 370 369 369 370 371 371 371 371 370 371 369 369 370 369 368 368 368 366 365 364 363 361 361 362 362 361 361 361 363 364 364 364 363 362 361 360
326 328 330 336 344 352 358 360 359 359 360 357 355 356 355 358 362 366 366 364 362 360 361 364 366 369 371 370 368 368 370 370 371 370 369 369 371 369 370 370 369 368 369 368 367 367 366 366 364 363 363 362 362 361 362 363 363 365 363 363 362 361 360
325 327 330 336 344 353 359 361 361 361 359 356 356 357 355 357 364 367 366 364 362 361 363 365 368 371 371 370 368 369 369 370 371 370 368 369 371 370 370 370 369 369 370 369 369 368 368 367 367 365 365 364 362 362 362 363 365 364 363 362 363 361 361
324 326 330 337 344 351 358 362 362 362 361 358 357 358 357 357 362 366 365 364 363 363 365 367 370 372 372 370 369 369 369 369 371 370 368 369 371 371 371 370 369 369 370 369 369 369 368 369 368 368 365 365 364 363 363 363 365 365 364 363 363 362 361
325 327 331 338 342 348 355 362 363 362 363 361 359 359 359 359 361 364 364 365 365 365 365 368 371 373 372 370 369 368 368 369 370 369 368 369 370 371 371 371 370 370 370 370 370 368 369 369 368 368 367 366 365 365 364 364 364 365 366 365 363 362 362
325 328 333 337 340 345 353 361 363 363 363 363 361 360 360 361 362 364 366 367 365 364 368 371 372 372 371 370 369 368 368 368 369 369 368 368 370 371 371 371 371 369 369 370 369 368 368 367 366 367 366 365 365 363 364 365 364 364 366 365 363 362 362
325 330 333 336 339 344 350 359 364 363 364 365 363 363 362 363 364 365 366 367 366 364 369 372 371 371 371 370 368 368 367 367 368 368 368 368 369 370 370 370 369 369 369 369 368 366 366 366 365 364 364 364 364 363 364 365 365 365 366 365 363 362 361
327 331 332 334 339 343 347 355 360 362 363 365 365 364 363 363 364 364 366 366 366 366 370 372 371 371 371 369 368 369 367 368 367 368 368 368 368 368 369 369 369 368 368 368 367 366 365 365 365 364 364 364 363 363 365 366 365 365 366 366 365 363 361
328 331 332 334 337 340 344 353 357 359 362 364 363 364 364 365 366 366 366 366 366 367 370 371 370 370 370 370 369 368 368 367 367 366 368 368 368 368 369 367 367 369 369 369 367 365 365 365 365 364 365 364 363 365 365 366 366 366 365 366 366 365 363
327 330 331 333 335 337 342 350 355 356 359 361 362 363 365 366 367 367 367 365 366 367 369 370 369 370 370 369 368 367 367 366 366 365 367 368 368 369 368 366 365 365 368 369 368 366 364 365 365 366 365 364 366 368 367 366 369 368 366 366 367 366 365
324 328 330 331 332 335 342 348 351 352 354 357 359 362 363 364 365 366 366 367 366 366 369 369 368 368 368 368 367 366 367 367 367 366 367 367 368 369 370 368 364 362 363 366 367 367 365 365 364 366 365 364 368 371 369 366 368 369 366 366 366 365 364
Wind_Speed
16 16 15 14 15 17 18 19 21 24 27 29 30 32 33 32 32 31 31 33 34 33 33 32 32 31 30 29 28 26 25 24 23 23 22 21 20 20 19 18 18 18 17 16 15 15 14 14 13 13 13 13 12 11 10 9 9 8 7 7 7 6 6
17 16 16 14 14 16 18 20 22 25 28 29 31 32 33 33 33 33 32 33 35 35 34 33 33 32 31 29 28 27 26 25 23 23 22 22 21 21 20 19 18 18 18 17 15 15 15 15 15 14 13 13 13 12 12 11 10 9 9 8 8 8 8
16 15 16 16 14 16 18 20 22 26 28 29 31 32 33 34 34 34 33 33 35 34 34 34 33 32 31 30 29 28 27 26 24 24 23 23 23 22 21 20 19 18 18 18 16 15 15 16 16 15 15 14 13 13 13 12 11 11 10 10 9 9 9
17 17 17 18 18 17 17 18 21 25 28 30 32 33 33 33 34 33 32 33 35 35 35 35 33 32 32 31 30 29 29 28 26 25 24 24 23 23 21 20 20 18 18 18 18 16 16 16 16 16 16 15 14 13 13 13 13 12 11 11 10 10 10
19 19 17 17 17 17 17 18 21 26 29 31 32 32 32 33 33 33 32 33 34 35 36 35 34 32 32 31 30 28 29 29 27 26 25 24 23 23 23 22 21 20 19 18 19 18 17 17 17 17 17 16 15 14 14 14 13 13 13 12 11 11 10
18 18 17 17 17 17 18 19 23 29 30 31 32 32 32 33 33 33 33 32 33 34 34 34 34 33 33 32 30 29 29 29 28 27 25 25 24 24 24 23 22 21 20 19 19 19 19 19 18 18 18 17 17 16 15 15 14 13 13 13 12 11 11
17 17 17 17 17 18 18 18 22 29 30 29 30 31 31 32 33 33 33 32 33 34 34 35 35 34 33 33 31 30 30 30 30 28 26 25 25 24 24 24 23 22 21 20 20 20 20 20 20 19 19 18 17 17 16 16 15 14 14 13 13 12 11
17 16 17 18 18 18 18 17 20 26 28 28 29 30 31 32 33 33 34 34 34 34 35 35 35 34 33 32 32 32 32 31 30 29 27 26 26 25 24 24 24 23 21 21 21 21 21 21 21 20 20 19 19 18 18 17 17 16 15 14 14 14 13
17 15 16 18 19 18 17 18 19 23 26 28 28 30 31 32 32 33 34 34 33 35 36 35 35 34 33 32 33 33 32 31 30 29 29 27 26 26 25 24 24 23 23 22 22 22 22 22 22 22 22 21 20 20 20 19 18 18 17 17 16 15 15
14 15 16 17 17 16 16 16 15 17 21 24 26 29 31 32 32 32 33 33 34 35 36 35 34 34 34 33 33 33 32 32 31 31 31 29 27 27 27 26 24 24 24 23 23 23 23 22 22 22 23 22 21 21 21 21 20 19 19 18 17 17 16
6 8 13 16 15 16 17 16 15 14 16 20 25 28 30 31 31 32 33 33 34 34 35 35 34 34 34 34 34 34 34 33 33 32 32 31 29 29 29 27 26 25 25 25 24 23 23 23 22 22 23 23 23 23 23 22 22 21 20 19 19 18 18
2 2 7 12 12 12 12 13 16 16 15 19 24 26 27 29 30 31 31 32 32 32 33 34 34 34 34 34 34 35 35 34 34 33 33 32 30 29 29 28 27 26 25 25 25 24 24 24 23 23 24 24 23 23 23 23 22 22 21 20 20 19 19
3 2 4 5 6 7 8 8 14 16 15 19 24 25 26 28 29 29 29 31 31 30 31 33 33 34 34 34 34 35 35 36 35 34 34 33 31 30 29 29 28 27 26 25 25 25 25 25 25 24 24 24 23 23 23 23 23 23 22 22 21 20 20
1 4 6 5 5 6 8 8 12 14 15 19 23 25 26 27 28 28 28 29 30 30 31 32 33 33 34 34 34 35 36 36 35 34 33 32 31 30 29 29 29 28 27 26 26 26 26 26 25 25 24 24 24 23 23 23 23 23 23 23 22 21 20
3 3 7 8 8 8 9 9 11 13 15 18 22 24 25 25 27 27 27 29 30 31 31 31 32 33 33 33 34 34 35 35 33 33 33 32 31 31 30 29 29 28 27 27 27 27 27 26 26 25 25 24 24 23 23 23 23 23 24 24 23 22 21
6 6 3 1 3 4 7 9 10 12 14 15 19 22 23 24 25 27 28 29 31 31 30 31 32 32 32 33 32 32 33 33 32 32 33 32 32 31 30 29 28 29 28 28 27 27 27 27 26 25 25 24 24 24 24 24 24 25 27 26 25 23 22
8 9 7 5 5 5 2 4 8 11 13 14 18 21 23 23 25 27 28 29 30 31 31 31 32 32 31 31 30 30 31 32 31 32 33 33 32 32 31 29 28 28 29 28 27 27 27 27 27 26 26 25 25 25 25 25 25 27 29 30 27 24 22
12 9 6 5 6 8 7 6 6 8 12 16 19 22 23 24 25 26 28 30 31 32 32 31 32 32 31 30 29 30 31 31 31 32 33 33 32 31 31 30 28 28 29 28 28 27 27 27 27 27 26 25 25 25 25 25 25 27 30 31 31 28 23
11 9 7 8 9 10 9 8 9 9 10 14 19 22 24 26 26 27 29 30 30 30 31 31 31 31 31 30 30 30 30 30 30 31 32 32 32 31 31 31 29 28 28 28 28 27 26 26 27 27 26 25 25 25 25 25 26 28 29 31 33 32 27
10 10 10 10 11 12 10 8 10 13 14 13 17 22 25 26 27 28 28 28 28 29 30 30 30 31 31 30 30 30 30 30 30 30 31 32 31 30 30 31 30 29 28 28 27 27 27 27 27 27 27 26 25 24 24 25 26 28 29 30 31 33 32
11 12 12 11 12 12 11 11 11 14 15 16 17 20 24 26 27 27 27 28 30 31 30 30 29 30 31 30 30 31 31 32 31 30 29 30 31 30 31 31 30 29 28 28 27 27 26 26 26 26 27 27 26 24 23 23 25 26 28 30 30 31 32
13 14 13 13 13 14 14 15 15 16 16 17 17 19 22 26 28 28 28 30 30 30 31 30 29 30 31 31 31 32 32 32 32 30 29 30 30 30 30 30 30 29 28 27 27 26 25 25 25 26 26 26 26 26 24 23 24 25 26 28 29 29 31
15 16 15 16 17 19 20 20 19 19 19 18 18 20 22 25 29 29 29 30 30 31 31 31 31 31 32 33 32 33 33 32 32 31 30 30 31 30 30 29 29 29 28 27 26 26 25 25 25 25 26 26 26 26 25 24 25 25 25 27 27 27 30
17 17 17 18 20 23 24 23 21 21 21 19 17 20 22 24 28 30 30 30 31 32 32 32 32 32 33 34 34 33 33 33 32 31 31 31 31 30 29 28 28 28 28 27 26 26 26 25 24 24 25 26 26 26 26 25 26 27 27 28 28 28 29
19 20 22 22 23 25 26 24 23 23 22 20 17 19 22 24 28 30 30 30 32 32 32 33 34 35 35 34 33 32 32 32 32 31 31 31 30 29 29 28 27 27 27 26 26 26 25 25 24 24 24 25 26 27 26 26 27 28 29 29 30 30 29
20 21 23 25 26 28 29 26 22 22 21 19 17 18 21 25 28 29 29 30 31 31 32 34 35 35 33 32 32 31 31 31 32 32 31 30 30 28 28 27 26 26 26 26 25 24 25 25 24 23 24 24 25 26 26 26 26 28 30 31 31 32 31
24 24 24 26 27 28 29 25 21 21 20 17 17 18 21 24 25 26 27 28 28 30 33 34 33 32 31 30 31 31 30 30 31 31 30 29 29 27 26 26 26 26 26 25 23 23 24 24 23 23 23 23 24 24 25 26 26 27 29 32 32 33 33
24 26 27 28 28 28 27 23 21 21 19 17 17 17 20 23 22 23 24 25 27 30 31 31 30 30 30 30 30 30 30 29 30 30 28 27 27 27 26 25 25 24 24 23 22 22 22 23 23 22 22 22 23 23 24 25 26 27 28 31 32 33 34
21 23 26 27 27 28 27 23 20 20 19 17 16 17 20 22 20 20 22 24 27 29 28 28 30 30 30 30 30 29 29 29 29 28 27 26 27 27 25 24 24 23 23 22 21 21 21 21 21 21 21 21 21 22 22 22 25 29 30 30 31 32 33
21 23 24 26 26 27 26 22 20 19 18 16 15 16 19 21 18 18 20 24 26 26 25 27 29 29 28 29 29 29 28 27 28 27 26 25 27 26 25 24 24 23 23 22 21 21 20 20 21 21 21 21 21 21 22 21 22 27 30 30 30 31 32
21 22 23 25 27 27 26 23 20 18 16 15 14 15 17 19 18 18 19 22 24 24 24 26 27 27 27 28 28 28 27 26 26 26 25 26 27 26 25 25 24 23 23 23 22 21 20 20 20 20 21 20 20 20 21 21 20 23 27 29 29 30 31
21 23 23 25 28 29 28 24 18 15 13 13 13 14 15 17 19 18 19 21 23 23 23 24 26 25 25 26 26 27 26 25 25 25 25 25 25 25 25 25 25 24 23 23 23 22 21 20 20 20 20 20 20 20 20 20 21 22 25 29 30 30 31
20 21 23 25 28 29 27 21 13 10 10 9 11 14 15 16 18 19 19 21 23 24 23 23 25 24 23 24 25 25 25 25 24 24 24 24 24 23 23 24 24 24 23 23 23 22 21 21 21 21 21 20 20 20 19 20 21 21 22 27 32 33 32
19 21 24 28 29 27 24 18 11 6 6 5 7 10 13 14 16 18 20 21 23 24 23 24 24 23 22 23 23 23 24 24 24 23 23 23 23 23 23 23 23 23 24 24 24 23 22 21 21 21 21 20 19 19 19 20 21 21 21 25 31 34 34
19 21 24 27 28 26 22 17 13 9 5 3 4 7 11 15 16 18 20 21 23 23 23 23 22 21 21 22 21 21 22 22 23 23 22 22 22 21 21 22 22 22 23 23 23 23 21 21 21 21 20 20 20 20 19 19 21 22 22 23 26 30 33
20 21 24 26 27 27 24 17 14 14 12 7 3 5 7 9 11 14 17 20 22 22 22 22 21 20 20 20 19 20 21 20 21 21 20 20 22 20 18 19 20 20 21 22 23 24 23 21 21 21 21 21 20 20 20 20 20 21 23 22 23 24 26
21 21 22 24 25 27 24 17 16 18 18 14 7 1 3 3 4 8 13 16 18 20 22 22 20 19 19 19 18 19 20 19 20 20 19 20 21 20 18 17 16 17 18 20 23 25 25 23 21 20 21 20 18 16 17 17 15 15 19 22 21 21 22
24 23 21 21 23 25 22 18 18 18 18 16 12 9 7 5 4 3 6 11 15 18 20 20 19 17 17 17 18 19 20 19 19 19 19 19 19 19 19 18 16 14 14 16 21 25 27 26 22 19 19 18 15 13 14 15 14 13 16 19 20 21 22
Wind_Direction
200 198 187 195 199 191 187 187 187 188 188 188 189 191 190 189 188 186 185 185 183 183 182 181 181 183 185 187 189 189 189 191 192 194 196 198 201 202 202 203 202 203 205 208 208 208 208 206 204 205 204 203 204 204 202 199 200 200 200 202 205 206 208
198 197 184 187 200 201 191 185 187 188 189 189 189 191 192 189 188 188 186 185 184 183 182 181 181 182 184 185 185 186 188 190 191 192 194 197 199 202 204 205 204 203 205 208 207 205 205 203 201 203 204 203 203 202 202 203 202 203 203 204 205 207 213
192 195 186 182 194 206 196 184 187 190 190 190 190 192 193 191 189 188 186 185 184 183 182 182 182 182 182 182 183 185 187 189 191 193 195 197 198 200 202 204 205 204 204 207 207 203 203 202 199 201 203 204 204 203 203 205 205 205 205 205 208 209 211
191 194 190 186 190 201 198 187 187 190 192 192 192 194 194 192 190 189 188 186 184 183 183 183 182 181 182 181 183 185 187 189 192 195 197 197 197 197 200 202 203 204 204 204 205 203 200 200 200 201 202 203 204 203 204 206 206 207 207 207 210 211 212
194 193 192 191 190 195 197 192 188 190 193 193 193 194 193 192 191 190 190 188 187 186 185 184 183 182 182 182 184 186 187 188 191 194 197 196 195 195 198 200 201 203 203 202 203 202 198 197 199 201 201 202 204 204 204 205 206 206 207 209 212 213 213
199 194 195 194 191 192 196 195 190 190 193 193 192 192 193 193 192 192 191 190 189 188 185 185 184 183 183 183 184 185 185 187 189 192 194 194 194 194 196 199 200 201 202 201 201 200 197 197 199 200 201 203 206 206 205 205 206 207 207 210 213 216 218
204 198 196 195 192 191 196 201 196 192 192 192 191 190 192 193 194 194 192 191 190 188 186 186 186 184 183 183 183 183 183 186 188 190 192 193 193 193 195 197 199 201 201 201 201 199 198 198 200 200 201 204 207 208 208 206 206 207 208 211 214 216 219
205 202 197 198 196 190 191 203 202 191 189 191 190 190 192 193 193 194 194 193 191 189 188 188 186 185 183 182 182 183 184 185 187 188 191 193 192 193 195 195 197 198 198 199 200 199 199 199 200 201 201 203 205 207 208 207 206 207 208 211 213 214 217
203 202 199 200 199 193 190 201 203 190 184 189 190 189 191 192 194 195 196 194 191 191 190 189 187 185 182 181 182 183 184 185 186 188 190 192 193 194 196 196 196 197 197 199 199 199 201 201 201 201 200 202 203 203 206 207 206 208 209 211 213 215 217
198 200 202 201 200 199 196 196 199 193 184 187 190 189 191 193 193 195 196 195 194 193 191 188 187 184 183 183 183 183 184 185 186 188 190 192 194 195 196 196 196 196 197 199 200 200 200 202 202 200 200 201 201 200 202 204 205 207 208 210 212 215 217
203 205 199 196 199 208 205 187 183 193 188 186 190 190 190 193 193 194 196 196 196 194 191 189 187 185 184 184 184 184 185 186 187 189 190 193 195 196 197 197 196 196 196 199 202 201 199 200 202 200 199 200 200 199 200 201 203 205 207 209 211 213 216
310 212 178 184 195 215 217 182 170 183 186 185 191 191 189 193 195 195 195 197 198 195 192 190 188 185 184 185 185 186 186 187 188 190 191 193 195 196 197 198 197 196 196 198 201 201 200 199 200 201 200 200 200 200 199 200 201 203 205 208 210 212 215
340 117 135 176 198 216 224 185 166 177 184 186 191 192 191 193 196 196 195 196 198 196 193 191 189 186 185 186 186 187 187 188 189 191 193 193 195 196 197 198 198 197 197 198 199 201 201 199 199 200 201 200 201 201 200 200 201 202 204 207 209 211 213
323 154 153 182 202 206 212 195 174 178 185 188 192 195 195 195 196 197 196 194 196 197 195 192 190 187 186 187 188 187 188 189 189 191 192 193 194 196 196 198 199 198 197 196 198 201 202 201 199 199 201 201 201 201 201 201 202 203 203 205 207 209 211
304 205 174 172 178 188 198 199 187 183 187 192 195 197 196 196 195 196 196 194 195 198 196 192 190 189 187 188 189 188 187 187 187 189 191 192 194 196 197 198 199 198 197 197 199 201 202 203 200 199 202 202 201 202 203 203 204 204 203 203 204 207 210
340 336 341 122 162 185 191 196 196 191 191 195 198 200 200 197 195 196 196 195 195 197 196 191 190 190 189 189 190 188 185 185 185 186 189 191 193 195 197 197 198 198 198 198 200 201 202 204 204 202 202 203 203 203 204 206 207 206 205 204 203 204 207
332 331 331 335 337 340 315 226 213 201 197 199 201 202 202 200 197 197 197 197 196 196 195 192 190 191 190 190 189 186 183 183 183 184 187 189 191 192 195 197 198 199 198 198 199 201 202 204 205 205 204 204 205 205 206 209 210 209 207 207 206 204 205
304 303 309 322 326 325 318 298 272 230 208 208 208 206 204 202 199 199 199 198 197 196 195 192 190 190 190 189 187 185 184 183 183 183 184 186 188 189 191 194 198 199 198 198 199 200 202 203 205 207 207 206 206 207 209 211 212 212 210 209 210 207 205
309 311 330 338 323 315 318 322 308 283 248 223 215 212 209 205 201 200 200 199 196 195 195 193 190 189 189 188 186 185 184 183 183 182 182 183 185 186 188 191 196 198 198 199 198 198 201 203 204 206 208 209 209 210 212 214 214 213 212 212 213 211 208
336 335 337 330 317 315 322 318 296 288 282 261 235 222 215 210 206 202 200 198 195 195 195 194 191 188 188 187 186 184 183 183 184 183 182 181 182 183 185 189 193 196 198 198 198 198 200 203 204 206 209 211 212 213 214 217 217 215 214 214 216 215 213
341 335 329 320 311 309 309 299 286 280 277 271 258 239 221 212 209 204 198 196 195 194 195 194 190 187 186 186 185 183 182 184 186 184 181 181 181 182 184 187 190 195 197 199 199 199 200 203 205 206 208 210 213 215 216 218 220 217 215 216 218 218 217
335 328 322 317 308 301 298 294 289 284 276 268 263 253 230 213 209 204 198 196 195 192 193 192 189 186 186 186 186 184 183 184 185 184 181 181 182 182 184 186 188 192 196 199 202 201 200 203 205 206 208 210 213 216 218 220 221 220 216 217 218 218 218
331 326 321 316 308 302 299 295 290 287 280 267 255 252 238 216 205 202 198 195 193 191 191 191 190 187 186 187 187 185 184 184 184 183 181 181 183 184 184 185 187 190 194 198 202 203 202 204 207 208 209 210 211 214 217 220 222 221 218 217 215 214 216
332 327 320 316 310 303 299 296 296 294 288 274 255 246 239 220 203 198 197 194 191 190 190 191 191 188 187 188 188 186 185 186 184 183 182 183 184 185 185 185 186 189 192 197 203 206 206 206 208 209 210 211 212 212 215 221 223 221 219 217 215 214 214
331 326 320 317 309 302 301 301 303 301 291 277 258 243 237 222 204 196 195 195 192 189 189 191 191 189 188 188 187 186 186 186 185 184 183 184 186 187 186 184 186 189 192 198 204 208 210 210 210 211 212 213 215 214 214 219 224 222 220 218 217 216 213
328 323 320 316 309 306 307 305 302 296 285 271 256 244 234 220 204 195 193 194 192 189 190 192 191 188 187 186 185 187 187 186 186 185 185 185 186 187 187 185 186 189 192 198 203 207 211 212 212 214 215 216 218 216 215 218 222 222 221 219 219 218 213
326 322 318 314 311 310 308 303 296 291 283 270 257 243 229 218 205 194 191 193 194 193 192 191 188 184 184 184 185 187 187 186 186 186 186 186 185 186 187 187 189 190 192 196 201 204 209 213 214 216 218 219 220 219 218 218 218 220 221 219 218 218 215
327 324 321 318 314 312 308 303 295 288 280 267 253 234 223 218 205 190 187 191 196 197 193 187 183 181 181 183 185 186 186 186 185 185 186 186 184 184 186 188 190 190 190 194 198 200 205 210 214 217 220 221 221 222 221 219 216 217 220 218 217 218 216
327 324 321 319 316 314 311 305 296 286 275 264 249 226 218 218 202 183 185 192 196 197 191 183 181 180 179 182 184 184 185 184 183 183 185 185 183 183 184 185 188 189 189 191 195 197 201 205 209 215 219 220 221 221 222 221 217 216 218 218 218 218 218
325 322 318 316 315 314 312 306 293 282 272 261 242 219 217 217 198 181 186 192 194 194 187 181 179 178 178 181 182 182 182 182 181 182 184 181 180 180 181 182 184 186 187 189 191 194 198 200 204 211 216 219 221 222 222 221 218 218 218 218 218 218 219
319 316 315 316 317 318 317 308 294 280 270 257 232 211 212 212 196 185 187 189 190 190 185 179 178 178 178 180 179 179 179 179 179 181 181 179 178 180 181 181 183 184 185 187 190 193 196 198 201 207 213 218 220 221 222 220 217 218 218 218 220 221 220
318 318 321 324 323 320 319 312 294 273 262 247 218 203 209 209 199 192 189 186 188 189 185 179 178 178 177 177 177 178 177 177 178 179 180 179 179 180 181 182 182 183 184 187 191 194 196 198 202 206 211 215 219 219 220 220 220 219 216 214 217 220 220
322 322 324 325 320 317 320 320 301 267 258 242 209 199 205 205 199 195 189 186 188 187 181 178 179 178 176 176 177 177 177 177 177 177 178 179 180 182 183 184 184 184 186 190 193 195 197 201 205 209 210 213 217 218 217 219 222 220 212 208 211 215 217
320 322 326 325 321 320 324 330 328 301 277 257 219 206 204 201 200 198 193 189 188 184 180 181 180 177 176 178 178 177 178 178 176 175 178 180 182 183 185 187 189 189 191 194 195 195 198 201 205 210 211 212 214 215 214 216 219 218 209 202 205 210 212
317 323 327 326 324 322 323 334 352 357 338 293 247 222 208 205 204 200 195 192 188 183 181 183 180 176 177 178 177 177 177 177 177 178 180 182 183 184 186 190 193 194 196 199 198 197 199 202 205 209 209 211 212 211 211 213 216 218 214 203 202 208 212
321 327 328 327 328 326 326 340 6 16 15 6 305 225 203 202 201 193 191 192 189 185 183 181 177 175 176 178 177 176 176 177 180 183 182 182 184 181 179 186 193 194 195 199 200 201 202 204 207 208 208 211 214 213 214 218 218 218 217 210 205 208 211
328 329 329 331 331 327 328 347 13 22 23 20 13 62 141 158 179 182 187 189 188 186 185 182 178 175 177 180 177 174 176 179 182 183 184 185 186 180 170 171 182 188 191 195 196 198 202 206 207 206 206 210 215 213 213 217 216 210 209 207 203 200 201
329 327 329 335 333 326 332 356 14 15 14 17 28 49 66 78 88 128 182 188 188 189 187 184 183 179 178 181 178 172 175 180 182 184 186 186 186 184 176 171 174 177 180 187 190 194 200 206 208 207 204 204 207 205 202 206 207 200 197 199 198 193 192